Terug naar catalogus

STARLINK-32883

ActiefCommunicatieVLEO
NORAD 62806·PAYLOAD·🇺🇸 United States

Gelanceerd Jan 24, 2025 vanaf Vandenberg Space Force Base

Loading…

Volgende Passages (komende 24 uur)

TLE

VersSource: CelesTrak SupGP

Epoch: Sep 15, 2026, 02:32 UTC

1 62806C 25018A   26258.10604167  .00003380  00000+0  99887-4 0  2582
2 62806  53.1571 146.5819 0001300  87.3003 287.8844 15.34384344    16

Volg STARLINK-32883 in realtime met AllMySat

Download on the App Store